Regional Weather Roundup
Issued by NWS

Home | Current Version | Previous Version | Text Only | Print | Product List | Glossary Off
Versions: 1 2 3 4 5 6 7 8 9 10 11 12 13 14 15 16 17 18 19 20 21 22 23 24 25 26 27 28 29 30 31 32 33 34 35 36 37 38 39 40 41 42 43 44 45 46 47 48 49 50

000
ASUS43 KMKX 281700
RWRWI

WISCONSIN REGIONAL WEATHER ROUNDUP
NATIONAL WEATHER SERVICE MILWAUKEE/SULLIVAN WI
1200 PM CDT SUN MAY 28 2017

NOTE: "FAIR" INDICATES FEW OR NO CLOUDS BELOW 12,000 FEET WITH NO
SIGNIFICANT WEATHER AND/OR OBSTRUCTIONS TO VISIBILITY.

WIZ001-002-006>008-014>016-023>028-281800-
NORTHWEST WISCONSIN

CITY           SKY/WX    TMP DP  RH WIND       PRES   REMARKS
SUPERIOR ARPT  NOT AVBL
ASHLAND        CLOUDY    58  54  86 W7        29.66F
HAYWARD        PTSUNNY   63  50  62 W9        29.66F
SIREN          MOSUNNY   63  46  53 W13       29.70R
CUMBERLAND     PTSUNNY   61  45  55 W14G20    29.70S
RICE LAKE      PTSUNNY   65  45  49 W15       29.71S
CHETEK         MOSUNNY   65  46  49 W13G22    29.70S
LADYSMITH      MOSUNNY   66  52  60 SW10      29.69F
EAU CLAIRE     NOT AVBL
MENOMONIE      PTSUNNY   67  45  45 W13       29.71S
NEW RICHMOND   PTSUNNY   64  44  48 W15G25    29.73S
OSCEOLA        PTSUNNY   64  47  54 W14       29.76R
$$

WIZ003>005-009-010-017-018-281800-
NORTH CENTRAL WISCONSIN

CITY           SKY/WX    TMP DP  RH WIND       PRES   REMARKS
MANITOWISH WTR PTSUNNY   66  50  57 S13G18    29.64F
ARBOR VITAE    MOSUNNY   67  51  56 S13G18    29.66F
WOODRUFF       MOSUNNY   67  51  56 S13G18    29.66F
RHINELANDER    MOSUNNY   70  49  47 SW14      29.68F
EAGLE RIVER    MOSUNNY   66  47  50 SE3       29.67F
LAND O LAKES   PTSUNNY   66  48  52 S7        29.69F
PHILLIPS       CLOUDY    64  50  59 S14G21    29.65F
TOMAHAWK       MOSUNNY   66  51  59 S3        29.69F
MEDFORD        PTSUNNY   65  51  59 S14       29.68F
MERRILL        SUNNY     67  51  56 S8G16     29.70F
$$

WIZ029-030-035-036-043>047-281800-
CENTRAL WISCONSIN

CITY           SKY/WX    TMP DP  RH WIND       PRES   REMARKS
WAUSAU         SUNNY     68  52  56 S12       29.69F
MOSINEE        MOSUNNY   66  55  68 S12G21    29.72F
MARSHFIELD     PTSUNNY   68  52  56 S13       29.69F
STEVENS POINT  SUNNY     66  52  60 S8        29.72F
WAUPACA        MOSUNNY   69  54  59 SE3       29.73F
WAUTOMA        PTSUNNY   68  56  65 S6        29.73F
WISC RAPIDS    SUNNY     71  52  50 SW14      29.73F
CAMP DOUGLAS   NOT AVBL
$$

WIZ011>013-019>022-031-037>040-048>050-281800-
NORTHEAST WISCONSIN

CITY           SKY/WX    TMP DP  RH WIND       PRES   REMARKS
ANTIGO         SUNNY     64  53  66 S8        29.72S
SHAWANO        PTSUNNY   66  54  66 N5        29.73F
OCONTO         CLOUDY    59  56  90 CALM      29.71F
STURGEON BAY   CLOUDY    58  56  93 W8        29.71F
GREEN BAY      PTSUNNY   62  58  86 S6        29.72F
MANITOWOC      NOT AVBL
APPLETON       PTSUNNY   63  54  72 VRB5      29.73F
CLINTONVILLE   MOSUNNY   66  52  59 SE6       29.72F
OSHKOSH        MOSUNNY   64  55  72 VRB3      29.73F
$$

WIZ032>034-041-042-053>061-281800-
SOUTHWEST WISCONSIN

CITY           SKY/WX    TMP DP  RH WIND       PRES   REMARKS
LA CROSSE      SUNNY     74  49  41 W13G22    29.72S
SPARTA         MOSUNNY   72  53  51 W12G20    29.73S
VIROQUA        MOSUNNY   70  51  52 SW14G24   29.75F
BOSCOBEL       MOSUNNY   74  54  49 SW9       29.74F
PRAIRIE DU CHI SUNNY     73  50  43 W12G18    29.76S
PLATTEVILLE    SUNNY     69  54  58 SW7       29.78F
$$

WIZ056-057-062-063-064-067-068-281800-
SOUTH CENTRAL WISCONSIN

CITY           SKY/WX    TMP DP  RH WIND       PRES   REMARKS
REEDSBURG      SUNNY     69  52  53 S8        29.74F
BARABOO/DELLS  SUNNY     68  50  51 S6        29.75S
LONE ROCK      NOT AVBL
MINERAL POINT  SUNNY     70  50  49 W5        29.77F
MADISON        MOSUNNY   66  56  70 VRB6      29.75F
MIDDLETON      SUNNY     67  55  63 CALM      29.76F
WATERTOWN      PTSUNNY   62  58  88 CALM      29.76F
MONROE         SUNNY     64  54  68 CALM      29.78S
JANESVILLE     MOSUNNY   66  57  72 N6        29.76F
$$

WIZ051-052-058>065-066-070>072-281800-
SOUTHEAST WISCONSIN

CITY           SKY/WX    TMP DP  RH WIND       PRES   REMARKS
MILWAUKEE      CLOUDY    62  59  90 NW7       29.75S
WAUKESHA       PTSUNNY   59  55  88 NW5       29.77S
MILWAUKEE/TIMM PTSUNNY   61  55  82 N3        29.76F
RACINE         LGT RAIN  61  59  93 N5        29.76S
KENOSHA        CLOUDY    63  60  90 W7        29.75S
FOND DU LAC    MOSUNNY   66  56  70 VRB5      29.74F
SHEBOYGAN      LGT RAIN  61  59  93 NW5       29.73F
WEST BEND      PTSUNNY   59  57  94 CALM      29.76S
JUNEAU         PTSUNNY   60  56  87 CALM      29.77S
$$

LSZ147-162-281800-
LAKE SUPERIOR

STATION/POSITION TIME  TEMP    WIND        PRES    WAVE
                       AIR SEA DIR/SP/G            HT/PER
                 (UTC) (F)     (DEG/KT/KT) (MB)    (FT/S)
W MID LAKE BUOY  1550   47 38  200/  4/  6 1004.8F   0
DEVILS ISLAND    1600   50     270/ 11/ 12 1005.2R
PORT WING        1640   51     290/  4/  7 1004.7F
SAXON HARBOR     1640   53     150/  2/  5 1004.7R
$$

LMZ867-665-643>646-281800-
LAKE MICHIGAN

STATION/POSITION TIME  TEMP    WIND        PRES    WAVE
                       AIR SEA DIR/SP/G            HT/PER
                 (UTC) (F)     (DEG/KT/KT) (MB)    (FT/S)
CHAMBERS ISLAND  1640   57     210/  5/ 10 1005.8F
N MID LAKE BUOY  1550   46 41  240/ 10/ 10 1008.0S   0
NORTHPORT PIER   1640   57     270/  2/  4 1006.1F
SISTER BAY       1551   55     290/  5/  5   N/A
KEWAUNEE LAKESHO 1630   58     280/  4/  7 1006.1F
SHEBOYGAN LAKESH 1600   57     300/  3/  4 1007.2F
PORT WASHINGTON  1640   61     340/  2/  4 1008.1S
ATWATER BUOY     1509   52     320/  4/  6 1008.2F
MILWAUKEE LAKESH 1630   58     330/  7/  8   N/A
S MID LAKE BUOY  1550   52 50  360/  8/  8 1008.0S   0
KENOSHA   LAKESH 1600   56      CALM  /  6 1007.5
$$

TC  - TEMPERATURE IN CELSIUS
VSB - VISIBILITY IN STATUTE MILES
WCI - WIND CHILL INDEX
HX  - HEAT INDEX




USA.gov is the U.S. government's official web portal to all federal, state and local government web resources and services.